TimeCST,TemperatureF,Dew PointF,Humidity,Sea Level PressureIn,VisibilityMPH,Wind Direction,Wind SpeedMPH,Gust SpeedMPH,PrecipitationIn,Events,Conditions,WindDirDegrees,DateUTC
12:18 AM,66.2,62.6,88,29.80,10.0,Calm,Calm,-,N/A,,Overcast,0,2012-12-28 06:18:00
12:38 AM,66.2,62.6,88,29.80,10.0,Calm,Calm,-,N/A,,Overcast,0,2012-12-28 06:38:00
12:53 AM,66.0,63.0,90,29.79,10.0,Calm,Calm,-,N/A,,Overcast,0,2012-12-28 06:53:00
1:53 AM,66.0,62.1,87,29.78,10.0,Calm,Calm,-,N/A,,Overcast,0,2012-12-28 07:53:00
2:53 AM,66.0,63.0,90,29.76,10.0,SSE,5.8,-,N/A,,Mostly Cloudy,160,2012-12-28 08:53:00
3:53 AM,66.9,64.0,90,29.75,10.0,South,6.9,-,N/A,,Partly Cloudy,180,2012-12-28 09:53:00
4:20 AM,68.0,64.4,88,29.75,10.0,South,5.8,-,N/A,,Mostly Cloudy,170,2012-12-28 10:20:00
4:37 AM,66.2,64.4,94,29.75,10.0,South,5.8,-,N/A,,Scattered Clouds,180,2012-12-28 10:37:00
4:53 AM,66.9,64.0,90,29.75,10.0,South,4.6,-,N/A,,Mostly Cloudy,180,2012-12-28 10:53:00
5:22 AM,66.2,64.4,94,29.76,10.0,SSW,3.5,-,N/A,,Mostly Cloudy,200,2012-12-28 11:22:00
5:44 AM,66.2,62.6,88,29.76,10.0,South,5.8,-,N/A,,Mostly Cloudy,180,2012-12-28 11:44:00
5:53 AM,64.9,63.0,93,29.76,10.0,South,4.6,-,N/A,,Mostly Cloudy,190,2012-12-28 11:53:00
6:53 AM,64.9,64.0,97,29.78,9.0,SW,5.8,-,N/A,,Partly Cloudy,220,2012-12-28 12:53:00
7:53 AM,66.0,64.9,96,29.81,7.0,West,4.6,-,N/A,,Clear,260,2012-12-28 13:53:00
8:53 AM,69.1,64.0,84,29.83,10.0,West,3.5,-,N/A,,Clear,260,2012-12-28 14:53:00
9:42 AM,68.0,59.0,73,29.88,10.0,NW,12.7,-,N/A,,Mostly Cloudy,310,2012-12-28 15:42:00
9:53 AM,66.9,57.9,73,29.88,10.0,NW,13.8,-,N/A,,Overcast,320,2012-12-28 15:53:00
10:53 AM,64.9,57.0,75,29.91,10.0,NNW,16.1,20.7,N/A,,Overcast,330,2012-12-28 16:53:00
11:22 AM,66.2,57.2,73,29.91,10.0,NW,13.8,-,N/A,,Overcast,320,2012-12-28 17:22:00
11:45 AM,66.2,57.2,73,29.91,10.0,NNW,12.7,-,N/A,,Overcast,330,2012-12-28 17:45:00
11:53 AM,66.9,57.0,70,29.90,10.0,NNW,11.5,-,N/A,,Overcast,340,2012-12-28 17:53:00
12:26 PM,68.0,57.2,68,29.89,10.0,NNW,15.0,-,N/A,,Scattered Clouds,330,2012-12-28 18:26:00
12:53 PM,66.9,57.0,70,29.88,10.0,NW,12.7,-,N/A,,Clear,320,2012-12-28 18:53:00
1:53 PM,69.1,53.1,57,29.86,10.0,NW,17.3,24.2,N/A,,Clear,320,2012-12-28 19:53:00
2:53 PM,71.1,46.9,42,29.86,10.0,NNW,15.0,23.0,N/A,,Clear,330,2012-12-28 20:53:00
3:53 PM,72.0,43.0,35,29.88,10.0,NNW,15.0,-,N/A,,Clear,330,2012-12-28 21:53:00
4:53 PM,70.0,41.0,35,29.90,10.0,North,11.5,-,N/A,,Clear,360,2012-12-28 22:53:00
5:53 PM,66.9,41.0,39,29.93,10.0,North,9.2,-,N/A,,Clear,10,2012-12-28 23:53:00
6:53 PM,64.0,39.9,41,29.96,10.0,North,6.9,-,N/A,,Clear,10,2012-12-29 00:53:00
7:53 PM,60.1,42.1,51,30.00,10.0,Calm,Calm,-,N/A,,Clear,0,2012-12-29 01:53:00
8:53 PM,55.9,42.1,60,30.03,10.0,Calm,Calm,-,N/A,,Clear,0,2012-12-29 02:53:00
9:53 PM,57.9,42.1,56,30.07,10.0,North,5.8,-,N/A,,Clear,350,2012-12-29 03:53:00
10:53 PM,60.1,48.0,64,30.09,10.0,North,6.9,-,N/A,,Clear,360,2012-12-29 04:53:00
11:53 PM,59.0,48.0,67,30.12,10.0,North,8.1,-,N/A,,Clear,360,2012-12-29 05:53:00